This is the latest recevied weather packets stored in our database for station/object KC1BRV. If no packets are shown the sender has not sent any weather packets the latest 10 day(s).
| Time | Temp. | Humidity | Pressure | Rain* | Wind** | Luminosity | Snow |
|---|---|---|---|---|---|---|---|
| 1777764707 | 10.56° C | 88% | 1011.1 hPa | 0 mm | - | 3 W/m² | - |
| 1777764403 | 10.56° C | 88% | 1011.3 hPa | 0 mm | - | 3 W/m² | - |
| 1777764101 | 10.56° C | 87% | 1011.4 hPa | 0 mm | - | 3 W/m² | - |
| 1777763797 | 10.56° C | 87% | 1011.4 hPa | 0 mm | - | 4 W/m² | - |
| 1777763495 | 10.56° C | 87% | 1011.3 hPa | 0 mm | - | 7 W/m² | - |
| 1777763193 | 10.56° C | 86% | 1011.3 hPa | 0 mm | - | 8 W/m² | - |
| 1777762892 | 10.56° C | 86% | 1011.4 hPa | 0 mm | - | 7 W/m² | - |
| 1777762586 | 10.56° C | 86% | 1011.3 hPa | 0 mm | - | 8 W/m² | - |
| 1777762284 | 10.56° C | 86% | 1011.4 hPa | 0 mm | - | 11 W/m² | - |
| 1777761981 | 10.56° C | 86% | 1011.3 hPa | 0 mm | - | 14 W/m² | - |
| 1777761677 | 10.56° C | 85% | 1011.4 hPa | 0 mm | - | 15 W/m² | - |
| 1777761375 | 10.56° C | 86% | 1011.2 hPa | 0 mm | - | 11 W/m² | - |
| 1777761074 | 10.56° C | 85% | 1011.3 hPa | 0 mm | - | 10 W/m² | - |
| 1777760770 | 10.56° C | 85% | 1011.3 hPa | 0 mm | - | 11 W/m² | - |
| 1777760467 | 10.56° C | 85% | 1011.1 hPa | 0 mm | - | 11 W/m² | - |
| 1777760162 | 10.56° C | 84% | 1011.3 hPa | 0 mm | - | 17 W/m² | - |
| 1777759860 | 10.56° C | 84% | 1011.2 hPa | 0 mm | - | 27 W/m² | - |
| 1777759555 | 10.56° C | 85% | 1011.2 hPa | 0 mm | - | 18 W/m² | - |
| 1777759252 | 10.56° C | 84% | 1011 hPa | 0 mm | - | 20 W/m² | - |
| 1777758949 | 10.56° C | 84% | 1011.1 hPa | 0 mm | - | 21 W/m² | - |
| 1777758646 | 10.56° C | 85% | 1011 hPa | 0 mm | - | 25 W/m² | - |
| 1777758343 | 10.56° C | 84% | 1011.2 hPa | 0 mm | - | 32 W/m² | - |
| 1777758041 | 10.56° C | 84% | 1011.3 hPa | 0 mm | - | 28 W/m² | - |
| 1777757737 | 11.11° C | 84% | 1011.2 hPa | 0 mm | - | 37 W/m² | - |
| 1777757435 | 11.11° C | 84% | 1011.3 hPa | 0 mm | - | 48 W/m² | - |
* Rain latest hour (hover to see other rain measurements)
** Current wind speed in m/s (hover to see current wind gust speed)